WET,Max TemperatureF,Mean TemperatureF,Min TemperatureF,Max Dew PointF,MeanDew PointF,Min DewpointF,Max Humidity, Mean Humidity, Min Humidity, Max Sea Level PressureIn, Mean Sea Level PressureIn, Min Sea Level PressureIn, Max VisibilityMiles, Mean VisibilityMiles, Min VisibilityMiles, Max Wind SpeedMPH, Mean Wind SpeedMPH, Max Gust SpeedMPH,PrecipitationIn, CloudCover, Events, WindDirDegrees
2012-12-1,55,50,45,46,43,41,87,77,56,29.95,29.83,29.68,9,6,4,14,9,,0.67,5,Rain-Thunderstorm,192
2012-12-2,61,54,46,45,40,36,76,58,34,30.32,30.24,30.12,9,7,6,9,5,,0.00,1,,234
2012-12-3,63,52,42,43,38,32,71,54,30,30.43,30.40,30.36,9,7,6,9,6,,0.00,1,,200
2012-12-4,67,56,44,48,44,35,71,56,32,30.40,30.35,30.33,9,7,6,14,8,,0.00,1,,260
2012-12-5,68,63,58,54,52,48,77,68,52,30.27,30.21,30.18,9,6,5,14,6,,0.00,3,,253
2012-12-6,65,56,48,54,49,43,82,69,55,30.21,30.17,30.15,6,6,5,9,6,,0.00,5,,308
2012-12-7,61,58,54,54,51,48,82,75,58,30.10,30.07,30.04,6,6,5,7,3,,0.08,7,Rain,226
2012-12-8,68,60,52,55,53,46,82,73,59,30.21,30.16,30.12,6,6,5,9,4,,0.00,4,,239
2012-12-9,67,60,53,57,51,46,82,72,53,30.27,30.23,30.21,9,6,6,9,5,,0.00,2,,210
2012-12-10,66,58,50,55,52,46,82,75,59,30.20,30.14,30.09,6,6,6,9,5,,0.00,4,,199
2012-12-11,65,58,51,55,51,46,82,73,63,30.13,30.08,30.04,6,6,5,9,5,,0.00,2,,152
2012-12-12,64,58,51,54,50,46,82,74,65,30.04,30.00,29.98,6,6,6,9,4,,0.00,5,,201
2012-12-13,68,59,50,54,51,47,82,71,47,30.09,30.03,29.98,9,7,6,9,6,,0.00,1,,181
2012-12-14,69,58,48,54,49,43,77,63,38,30.12,30.08,29.83,9,9,9,9,5,,0.00,,,231
2012-12-15,71,61,51,54,49,45,76,59,37,30.30,30.23,30.18,9,7,6,7,4,,0.00,,,213
2012-12-16,71,62,54,57,52,46,77,64,46,30.36,30.31,30.27,9,7,6,9,5,,0.00,,,162
2012-12-17,71,62,52,57,50,-17,82,66,4,30.33,30.28,30.24,9,6,6,14,5,,0.00,1,,239
2012-12-18,71,61,51,55,50,45,77,67,47,30.27,30.21,30.18,9,8,6,9,4,,0.00,,,161
2012-12-19,65,55,45,56,50,40,82,72,57,30.22,30.17,30.15,9,6,6,7,5,,0.00,2,,228
2012-12-20,68,60,51,57,53,48,88,75,58,30.26,30.20,30.15,9,7,5,7,5,,0.00,2,,171
2012-12-21,73,63,53,57,53,45,82,67,49,30.28,30.25,30.21,9,7,6,12,7,,0.00,1,,233
2012-12-22,72,59,48,56,49,40,71,61,42,30.30,30.25,30.23,9,7,6,7,4,,0.00,,,227
2012-12-23,66,60,53,59,53,50,88,81,62,30.24,30.20,30.18,6,6,5,7,4,,0.00,4,,336
2012-12-24,62,53,44,57,53,48,100,91,77,30.16,30.08,30.01,6,3,0,5,3,,0.00,6,Fog,267
2012-12-25,64,56,47,57,51,43,94,82,69,30.22,30.09,29.98,6,6,3,12,7,20,0.24,4,Rain,246
2012-12-26,65,56,48,54,49,43,82,69,50,30.40,30.32,30.24,9,7,6,12,5,,0.00,1,,250
2012-12-27,67,56,46,54,48,41,81,68,47,30.48,30.45,30.42,9,7,6,9,6,,0.00,1,,177
2012-12-28,63,52,42,54,47,36,87,73,50,30.48,30.43,30.42,9,8,6,7,4,,0.00,,,112
2012-12-29,64,52,39,52,46,37,81,69,59,30.42,30.39,30.36,9,7,6,9,7,,0.00,1,,222
2012-12-30,66,58,51,54,48,44,77,66,45,30.46,30.42,30.39,6,6,6,12,5,,0.00,3,,251
2012-12-31,64,54,45,50,46,40,82,70,55,30.37,30.29,30.21,9,7,6,7,5,,0.00,5,,212